Council Bluffs, IA

1:27 AM CST on January 19, 2017 (GMT -0600)
Council Bluffs Municipal

Weather History for KCBF - November, 2013

Change the Weather History Date:

Tuesday, November 19, 2013

  Actual Average Record
Temperature  
Mean Temperature 46 °F -  
Max Temperature 60 °F 46 °F 75 °F (2007)
Min Temperature 32 °F 29 °F 19 °F (1997)
Degree Days  
Heating Degree Days 19    
Moisture  
Dew Point 28 °F    
Average Humidity 52    
Maximum Humidity 81    
Minimum Humidity 27    
Precipitation  
Precipitation 0.00 in - - ()
Sea Level Pressure  
Sea Level Pressure 30.01 in    
Wind  
Wind Speed 13 mph (SSE)    
Max Wind Speed 26 mph    
Max Gust Speed 37 mph    
Visibility 10 miles    
Events      
Averages and records for this station are not official NWS values.
T = Trace of Precipitation, MM = Missing Value Source: NWS Daily Summary

Daily Weather History Graph

Daily Weather History Graph

Search for Another Location

Airport or City:

Trip Planner

Search our weather history database for the weather conditions in past years. The results will help you decide how hot, cold, wet, or windy it might be!

Date:

Astronomy

Nov. 19, 2013 Rise Set
Actual Time 7:16 AM CST 5:00 PM CST
Civil Twilight 6:46 AM CST 5:30 PM CST
Nautical Twilight 6:12 AM CST 6:04 PM CST
Astronomical Twilight 5:39 AM CST 6:36 PM CST
Moon 6:52 PM CST 8:56 AM CST
Length of Visible Light 10h 44m
Length of Day
9h 44m
Waning Gibbous, 96% of the Moon is Illuminated
Nov 19
Waning Gibbous
Nov 25
Last Quarter
Dec 2
New
Dec 9
First Quarter
Dec 17
Full

Hourly Weather History & Observations

Time (CST) Temp. Windchill Dew Point Humidity Pressure Visibility Wind Dir Wind Speed Gust Speed Precip Events Conditions
12:15 AM 33.8 °F 26.4 °F 28.4 °F 81% 30.18 in 10.0 mi SE 9.2 mph - N/A   Clear
12:35 AM 35.6 °F 28.6 °F 26.6 °F 70% 30.17 in 10.0 mi SSE 9.2 mph - N/A   Clear
12:55 AM 35.6 °F 28.6 °F 26.6 °F 70% 30.17 in 10.0 mi SSE 9.2 mph - N/A   Clear
1:15 AM 35.6 °F 27.5 °F 26.6 °F 70% 30.16 in 10.0 mi SSE 11.5 mph - N/A   Clear
1:35 AM 35.6 °F 27.5 °F 26.6 °F 70% 30.16 in 10.0 mi SSE 11.5 mph - N/A   Clear
1:55 AM 33.8 °F 27.0 °F 26.6 °F 75% 30.16 in 10.0 mi SE 8.1 mph - N/A   Clear
2:15 AM 33.8 °F 27.0 °F 26.6 °F 75% 30.16 in 10.0 mi SSE 8.1 mph - N/A   Clear
2:35 AM 33.8 °F 27.0 °F 26.6 °F 75% 30.16 in 10.0 mi SE 8.1 mph - N/A   Clear
2:55 AM 33.8 °F 26.4 °F 26.6 °F 75% 30.16 in 10.0 mi SSE 9.2 mph - N/A   Clear
3:15 AM 33.8 °F 26.4 °F 26.6 °F 75% 30.16 in 10.0 mi SSE 9.2 mph - N/A   Clear
3:35 AM 33.8 °F 26.4 °F 26.6 °F 75% 30.15 in 10.0 mi South 9.2 mph - N/A   Clear
3:55 AM 35.6 °F 29.2 °F 26.6 °F 70% 30.15 in 10.0 mi South 8.1 mph - N/A   Clear
4:15 AM 37.4 °F 31.4 °F 26.6 °F 65% 30.14 in 10.0 mi South 8.1 mph - N/A   Clear
4:35 AM 41.0 °F 35.2 °F 26.6 °F 57% 30.14 in 10.0 mi South 9.2 mph - N/A   Clear
4:55 AM 41.0 °F 35.8 °F 26.6 °F 57% 30.14 in 10.0 mi South 8.1 mph - N/A   Clear
5:15 AM 35.6 °F 29.2 °F 26.6 °F 70% 30.14 in 10.0 mi SSE 8.1 mph - N/A   Clear
5:35 AM 35.6 °F 28.6 °F 26.6 °F 70% 30.13 in 10.0 mi SSE 9.2 mph - N/A   Clear
5:55 AM 32.0 °F 25.6 °F 26.6 °F 80% 30.13 in 10.0 mi SSE 6.9 mph - N/A   Clear
6:15 AM 32.0 °F 24.8 °F 26.6 °F 80% 30.13 in 10.0 mi SSE 8.1 mph - N/A   Clear
6:35 AM 32.0 °F 24.2 °F 26.6 °F 80% 30.13 in 10.0 mi SE 9.2 mph - N/A   Clear
6:55 AM 32.0 °F 24.8 °F 26.6 °F 80% 30.12 in 10.0 mi SE 8.1 mph - N/A   Clear
7:15 AM 32.0 °F 24.2 °F 26.6 °F 80% 30.12 in 10.0 mi SE 9.2 mph - N/A   Clear
7:35 AM 32.0 °F 23.6 °F 26.6 °F 80% 30.12 in 10.0 mi SE 10.4 mph - N/A   Clear
7:55 AM 33.8 °F 25.8 °F 28.4 °F 81% 30.11 in 10.0 mi SE 10.4 mph - N/A   Clear
8:15 AM 35.6 °F 28.0 °F 28.4 °F 75% 30.11 in 10.0 mi SE 10.4 mph - N/A   Clear
8:35 AM 35.6 °F 28.0 °F 28.4 °F 75% 30.10 in 10.0 mi SE 10.4 mph - N/A   Clear
8:55 AM 39.2 °F 31.6 °F 30.2 °F 70% 30.10 in 10.0 mi SSE 12.7 mph - N/A   Clear
9:15 AM 41.0 °F 34.7 °F 30.2 °F 65% 30.10 in 10.0 mi SSE 10.4 mph - N/A   Clear
9:35 AM 41.0 °F 35.2 °F 30.2 °F 65% 30.09 in 10.0 mi SE 9.2 mph - N/A   Clear
9:55 AM 46.4 °F 40.4 °F 32.0 °F 57% 30.08 in 10.0 mi SSE 13.8 mph - N/A   Clear
10:15 AM 48.2 °F - 32.0 °F 54% 30.08 in 10.0 mi SSE 13.8 mph - N/A   Clear
10:35 AM 51.8 °F - 32.0 °F 47% 30.07 in 10.0 mi SSE 12.7 mph - N/A   Clear
10:55 AM 53.6 °F - 32.0 °F 44% 30.06 in 10.0 mi South 17.3 mph - N/A   Clear
11:15 AM 55.4 °F - 30.2 °F 38% 30.04 in 10.0 mi South 23.0 mph 29.9 mph N/A   Clear
11:35 AM 55.4 °F - 32.0 °F 41% 30.03 in 10.0 mi South 21.9 mph - N/A   Clear
11:55 AM 57.2 °F - 32.0 °F 38% 30.01 in 10.0 mi South 23.0 mph 28.8 mph N/A   Clear
12:15 PM 57.2 °F - 32.0 °F 38% 30.00 in 10.0 mi South 18.4 mph 27.6 mph N/A   Clear
12:35 PM 59.0 °F - 32.0 °F 36% 29.99 in 10.0 mi South 23.0 mph 28.8 mph N/A   Clear
12:55 PM 59.0 °F - 32.0 °F 36% 29.97 in 10.0 mi South 26.5 mph 34.5 mph N/A   Clear
1:15 PM 59.0 °F - 32.0 °F 36% 29.96 in 10.0 mi South 23.0 mph 31.1 mph N/A   Clear
1:35 PM 60.8 °F - 32.0 °F 34% 29.94 in 10.0 mi South 21.9 mph 32.2 mph N/A   Clear
1:55 PM 60.8 °F - 32.0 °F 34% 29.93 in 10.0 mi South 24.2 mph 36.8 mph N/A   Scattered Clouds
2:15 PM 60.8 °F - 30.2 °F 31% 29.92 in 10.0 mi South 18.4 mph 28.8 mph N/A   Scattered Clouds
2:35 PM 59.0 °F - 30.2 °F 34% 29.91 in 10.0 mi SSE 24.2 mph 31.1 mph N/A   Mostly Cloudy
2:55 PM 59.0 °F - 30.2 °F 34% 29.91 in 10.0 mi South 21.9 mph 27.6 mph N/A   Overcast
3:15 PM 59.0 °F - 28.4 °F 31% 29.91 in 10.0 mi South 23.0 mph 34.5 mph N/A   Overcast
3:35 PM 59.0 °F - 26.6 °F 29% 29.90 in 10.0 mi South 25.3 mph 33.4 mph N/A   Overcast
3:55 PM 59.0 °F - 24.8 °F 27% 29.90 in 10.0 mi South 24.2 mph 35.7 mph N/A   Mostly Cloudy
4:15 PM 57.2 °F - 26.6 °F 31% 29.90 in 10.0 mi South 20.7 mph 26.5 mph N/A   Mostly Cloudy
4:35 PM 55.4 °F - 26.6 °F 33% 29.89 in 10.0 mi SSE 17.3 mph 25.3 mph N/A   Partly Cloudy
4:55 PM 55.4 °F - 26.6 °F 33% 29.89 in 10.0 mi SSE 17.3 mph 24.2 mph N/A   Clear
5:15 PM 55.4 °F - 24.8 °F 31% 29.89 in 10.0 mi SSE 21.9 mph 28.8 mph N/A   Clear
5:35 PM 53.6 °F - 24.8 °F 33% 29.90 in 10.0 mi SSE 18.4 mph 27.6 mph N/A   Clear
5:55 PM 53.6 °F - 24.8 °F 33% 29.90 in 10.0 mi SSE 17.3 mph 27.6 mph N/A   Clear
6:15 PM 51.8 °F - 26.6 °F 38% 29.90 in 10.0 mi SSE 16.1 mph 28.8 mph N/A   Partly Cloudy
6:35 PM 51.8 °F - 26.6 °F 38% 29.90 in 10.0 mi SSE 15.0 mph - N/A   Mostly Cloudy
6:55 PM 51.8 °F - 26.6 °F 38% 29.90 in 10.0 mi SSE 19.6 mph 27.6 mph N/A   Overcast
7:15 PM 51.8 °F - 26.6 °F 38% 29.90 in 10.0 mi SSE 17.3 mph - N/A   Overcast
7:35 PM 51.8 °F - 28.4 °F 41% 29.90 in 10.0 mi SSE 18.4 mph 27.6 mph N/A   Overcast
7:55 PM 51.8 °F - 28.4 °F 41% 29.89 in 10.0 mi SSE 20.7 mph 27.6 mph N/A   Overcast
8:15 PM 51.8 °F - 28.4 °F 41% 29.89 in 10.0 mi SSE 20.7 mph 28.8 mph N/A   Overcast
8:35 PM 51.8 °F - 28.4 °F 41% 29.90 in 10.0 mi SSE 19.6 mph 27.6 mph N/A   Overcast
8:55 PM 51.8 °F - 28.4 °F 41% 29.89 in 10.0 mi SSE 20.7 mph 28.8 mph N/A   Overcast
9:15 PM 51.8 °F - 28.4 °F 41% 29.89 in 10.0 mi South 19.6 mph - N/A   Overcast
9:35 PM 51.8 °F - 28.4 °F 41% 29.90 in 10.0 mi South 18.4 mph 26.5 mph N/A   Overcast
9:55 PM 50.0 °F - 28.4 °F 43% 29.89 in 10.0 mi SSE 19.6 mph - N/A   Overcast
10:15 PM 51.8 °F - 28.4 °F 41% 29.89 in 10.0 mi South 19.6 mph - N/A   Overcast
10:35 PM 50.0 °F - 28.4 °F 43% 29.89 in 10.0 mi South 18.4 mph - N/A   Overcast
10:55 PM 50.0 °F - 28.4 °F 43% 29.88 in 10.0 mi SSE 17.3 mph 24.2 mph N/A   Overcast
11:15 PM 50.0 °F - 28.4 °F 43% 29.89 in 10.0 mi SSE 16.1 mph 23.0 mph N/A   Overcast
11:35 PM 50.0 °F - 28.4 °F 43% 29.89 in 10.0 mi SSE 16.1 mph - N/A   Overcast
11:55 PM 48.2 °F - 28.4 °F 46% 29.89 in 10.0 mi SSE 15.0 mph - N/A   Mostly Cloudy